EW3619 Weather Reports


time (UTC)temp
C
wind
direction
speed
KPH
gust
KPH
rain 1hr
cm
rain 24hr
cm
rain mn
cm
humidity
%
barometer
mb
20260504081509 13 296 4.8 16.1 0.00 0.00 0.00 1 1014.4
20260504050012 15 238 1.6 8.0 0.00 0.00 0.00 1 1014.2
20260504044514 15 227 1.6 6.4 0.00 0.00 0.00 1 1014.1
20260504043003 15 239 1.6 4.8 0.00 0.00 0.00 1 1014.1
20260504041558 16 228 0.0 4.8 0.00 0.00 0.00 1 1014.1
20260504040058 16 228 1.6 4.8 0.00 0.00 0.00 1 1013.4
20260504034549 16 244 1.6 6.4 0.00 0.00 0.00 1 1013.6
20260504033046 16 227 3.2 11.3 0.00 0.00 0.00 1 1013.8
20260504031540 16 196 4.8 11.3 0.00 0.00 0.00 1 1013.4
20260504030036 16 164 4.8 14.5 0.00 0.00 0.00 1 1013.4
20260504024531 16 232 3.2 11.3 0.00 0.00 0.00 1 1013.2
20260504023028 17 284 6.4 12.9 0.00 0.00 0.00 1 1013.3
20260504021522 17 188 4.8 9.7 0.00 0.00 0.00 1 1013.3
20260504020018 17 288 4.8 14.5 0.00 0.00 0.00 1 1013.1
20260504014524 17 287 4.8 12.9 0.00 0.00 0.00 1 1012.9
20260504013012 17 243 6.4 16.1 0.00 0.00 0.00 1 1013.3
20260504011507 17 277 4.8 24.1 0.00 0.00 0.00 1 1012.9
20260504010005 17 223 9.7 20.9 0.00 0.00 0.00 1 1012.5
20260504004601 18 271 4.8 17.7 0.00 0.00 0.00 1 1012.4
20260504003056 18 257 8.0 20.9 0.00 0.00 0.00 1 1012.2
20260504001600 19 193 8.0 20.9 0.00 0.00 0.00 1 1011.9
20260504000049 20 215 9.7 17.7 0.00 0.00 0.00 1 1011.8
20260503234548 20 166 6.4 16.1 0.00 0.00 0.00 1 1011.9
20260503233052 20 263 4.8 14.5 0.00 0.00 0.00 1 1011.7
20260503231543 21 248 4.8 16.1 0.00 0.00 0.00 1 1011.9
20260503230043 20 273 4.8 16.1 0.00 0.00 0.00 1 1012.0
20260503224539 19 294 9.7 16.1 0.00 0.00 0.00 1 1012.2
20260503223030 19 335 3.2 17.7 0.00 0.00 0.00 1 1012.0
20260503221526 20 278 9.7 20.9 0.00 0.00 0.00 1 1012.2
20260503220025 19 33 6.4 14.5 0.00 0.00 0.00 1 1012.5
20260503214526 19 244 8.0 20.9 0.00 0.00 0.00 1 1012.7
20260503213017 19 252 4.8 16.1 0.00 0.00 0.00 1 1012.7
20260503211513 19 330 4.8 17.7 0.00 0.00 0.00 1 1012.7
20260503210024 19 261 6.4 17.7 0.00 0.00 0.00 1 1012.6
20260503204506 20 247 8.0 19.3 0.00 0.00 0.00 1 1012.6
20260503203106 20 273 6.4 17.7 0.00 0.00 0.00 1 1012.7
20260503201555 19 295 8.0 22.5 0.00 0.00 0.00 1 1012.6
20260503200151 19 188 9.7 22.5 0.00 0.00 0.00 1 1013.0
20260503194601 18 266 4.8 25.7 0.00 0.00 0.00 1 1013.2
20260503193042 18 281 12.9 22.5 0.00 0.00 0.00 1 1013.2
20260503191538 18 245 8.0 20.9 0.00 0.00 0.00 1 1013.0
20260503190043 20 243 8.0 20.9 0.00 0.00 0.00 1 1013.0
20260503184531 20 284 3.2 11.3 0.00 0.00 0.00 1 1012.9
20260503183026 20 181 1.6 8.0 0.00 0.00 0.00 1 1012.8
20260503181521 20 207 1.6 9.7 0.00 0.00 0.00 1 1012.9
20260503180017 20 163 1.6 11.3 0.00 0.00 0.00 1 1013.2
20260503174512 20 122 1.6 9.7 0.00 0.00 0.00 1 1013.2
20260503173008 18 182 6.4 12.9 0.00 0.00 0.00 1 1013.2
20260503171503 17 57 1.6 8.0 0.00 0.00 0.00 1 1013.2